Location: Lourdes
(43.1000°N, 0.0500°W)
Time: 18:40:52
(UTC+00:00)

FALCON EYE 2 - Visible Passes

Search period start: 22 June 2021 00:00
Search period end: 02 July 2021 00:00
Orbit: 612 x 615 km, 97.9° (Epoch: 21 June)

Date Brightness Start Highest point End Pass type
(mag) Time Alt. Az. Time Alt. Az. Time Alt. Az.
22 Jun ? 21:26:03 23° SE 21:28:15 40° ENE 21:32:17 10° N visible
22 Jun ? 23:03:05 16° WSW 23:04:24 19° W 23:07:27 10° NW visible
23 Jun ? 21:41:36 29° SE 21:43:34 59° ENE 21:47:49 10° N visible
23 Jun ? 23:18:38 11° WSW 23:19:57 13° W 23:21:54 10° WNW visible
24 Jun ? 21:57:09 35° SSE 21:58:56 87° ENE 22:03:15 10° NNW visible
25 Jun ? 20:36:48 10° E 20:38:52 13° ENE 20:40:57 10° NNE visible
25 Jun ? 22:12:44 36° S 22:14:20 64° WSW 22:18:37 10° NNW visible
26 Jun ? 20:51:16 11° ESE 20:54:06 19° ENE 20:57:06 10° NNE visible
26 Jun ? 22:28:18 31° SW 22:29:47 42° W 22:33:53 10° NNW visible
27 Jun ? 21:06:51 15° ESE 21:09:23 26° ENE 21:12:57 10° NNE visible
27 Jun ? 22:43:54 24° SW 22:45:16 29° W 22:49:03 10° NW visible
28 Jun ? 21:22:28 21° ESE 21:24:42 37° ENE 21:28:40 10° N visible
28 Jun ? 22:59:30 18° WSW 23:00:48 20° W 23:04:02 10° NW visible
29 Jun ? 21:38:04 28° SE 21:40:04 54° ENE 21:44:16 10° N visible
29 Jun ? 23:15:07 13° WSW 23:16:23 14° W 23:18:40 10° WNW visible
30 Jun ? 21:53:42 35° SSE 21:55:28 80° ENE 21:59:48 10° N visible
01 Jul ? 20:33:44 10° E 20:35:30 12° ENE 20:37:17 10° NE visible
01 Jul ? 22:09:20 37° S 22:10:55 70° WSW 22:15:13 10° NNW visible
